Regional Weather Roundup
Issued by NWS

Home | Current Version | Previous Version | Text Only | Print | Product List | Glossary On
Versions: 1 2 3 4 5 6 7 8 9 10 11 12 13 14 15 16 17 18 19 20 21 22 23 24 25 26 27 28 29 30 31 32 33 34 35 36 37 38 39 40 41 42 43 44 45 46 47 48 49 50
000
ASUS43 KMKX 210900
RWRWI

WISCONSIN REGIONAL WEATHER ROUNDUP
NATIONAL WEATHER SERVICE MILWAUKEE/SULLIVAN WI
400 AM CDT SUN SEP 21 2014

NOTE: "FAIR" INDICATES FEW OR NO CLOUDS BELOW 12,000 FEET WITH NO
SIGNIFICANT WEATHER AND/OR OBSTRUCTIONS TO VISIBILITY.

WIZ001-002-006>008-014>016-023>028-211000-
NORTHWEST WISCONSIN

CITY           SKY/WX    TMP DP  RH WIND       PRES   REMARKS
SUPERIOR ARPT  CLOUDY    52  51  97 NE13G21   29.85R
ASHLAND        LGT RAIN  51  50  96 N16G31    29.82R FOG
HAYWARD        LGT RAIN  54  52  93 VRB7      29.78R
SIREN          DRIZZLE   51  49  94 NW9G17    29.84R
RICE LAKE      RAIN      51  49  90 W13       29.82R
LADYSMITH      LGT RAIN  54  52  94 NW13      29.76R
EAU CLAIRE     NOT AVBL
MENOMONIE      CLOUDY    55  47  74 W18G26    29.81R
NEW RICHMOND   CLOUDY    53  46  78 NW14G23   29.86R
OSCEOLA        CLOUDY    54  48  81 NW10G20   29.89R
$$

WIZ003>005-009-010-017-018-211000-
NORTH CENTRAL WISCONSIN

CITY           SKY/WX    TMP DP  RH WIND       PRES   REMARKS
WOODRUFF       RAIN      52  50  94 N6        29.71R
RHINELANDER    RAIN      51  50  96 VRB3      29.71R FOG
EAGLE RIVER    LGT RAIN  51  51  99 N7        29.70R
LAND O LAKES   LGT RAIN  53  52  96 NE7       29.72R
PHILLIPS       DRIZZLE   51  51  98 NW5       29.73R
TOMAHAWK       RAIN      51  50  96 NW5       29.71R
MEDFORD        RAIN      50  49  96 W8        29.71R
MERRILL        RAIN      53  53  99 N7        29.69R
$$

WIZ029-030-035-036-043>047-211000-
CENTRAL WISCONSIN

CITY           SKY/WX    TMP DP  RH WIND       PRES   REMARKS
WAUSAU         CLOUDY    54  52  93 W13       29.68R
MOSINEE        CLOUDY    52  52 100 W13       29.70R
MARSHFIELD     LGT RAIN  53  50  89 NW20G25   29.72R FOG
STEVENS POINT  RAIN      53  50  92 W8        29.70R
WAUPACA        CLOUDY    57  54  90 W7        29.69R
WAUTOMA        NOT AVBL
WISC RAPIDS    LGT RAIN  54  51  90 W13G20    29.73R FOG
CAMP DOUGLAS   CLOUDY    55  54  94 W18G25    29.74S
$$

WIZ011>013-019>022-031-037>040-048>050-211000-
NORTHEAST WISCONSIN

CITY           SKY/WX    TMP DP  RH WIND       PRES   REMARKS
ANTIGO         CLOUDY    51  51  99 N3        29.68S
STURGEON BAY   CLOUDY    55  52  88 NE5       29.64S
GREEN BAY      CLOUDY    56  55  97 W8        29.65S
MANITOWOC      MOCLDY    57  55  94 W12       29.65R
APPLETON       CLOUDY    54  54 100 W10       29.68R
CLINTONVILLE   CLOUDY    55  54  94 W7        29.66S
OSHKOSH        CLOUDY    56  53  90 W9        29.68R
$$

WIZ032>034-041-042-053>061-211000-
SOUTHWEST WISCONSIN

CITY           SKY/WX    TMP DP  RH WIND       PRES   REMARKS
LA CROSSE      MOCLDY    60  49  66 NW17G30   29.80R
SPARTA         CLOUDY    55  48  76 W10G17    29.78S
VIROQUA        FAIR      55  51  89 NW17G23   29.80R
BOSCOBEL       CLEAR     57  51  80 SW7       29.81S
PRAIRIE DU CHI CLEAR     56  52  86 W6        29.84S
PLATTEVILLE    FAIR      54  52  93 W12G18    29.84S
$$

WIZ056-057-062-063-064-067-068-211000-
SOUTH CENTRAL WISCONSIN

CITY           SKY/WX    TMP DP  RH WIND       PRES   REMARKS
BARABOO/DELLS  MOCLDY    54  49  85 W8        29.75S
LONE ROCK      NOT AVBL
WATERTOWN      CLEAR     55  53  94 W7        29.73S
MADISON        CLEAR     56  51  84 W8        29.75S
MIDDLETON      FAIR      56  54  92 W12       29.76S
MONROE         CLEAR     54  52  94 W14       29.80S
JANESVILLE     CLEAR     55  52  88 W8        29.78S
$$

WIZ051-052-058>065-066-070>072-211000-
SOUTHEAST WISCONSIN

CITY           SKY/WX    TMP DP  RH WIND       PRES   REMARKS
MILWAUKEE      MOCLDY    60  54  80 W15G24    29.71R
WAUKESHA       PTCLDY    54  52  94 W20       29.73R
MILWAUKEE/TIMM PTCLDY    57  50  77 W18G25    29.71R
RACINE         CLEAR     59  52  77 W13G22    29.73R
BURLINGTON     CLEAR     56  51  85 W10G20    29.75R
KENOSHA        CLEAR     58  54  86 W14       29.73R
FOND DU LAC    MOCLDY    56  51  84 W9        29.70S
SHEBOYGAN      MOCLDY    57  53  86 W12       29.67S
WEST BEND      MOCLDY    55  50  82 W13       29.69S
JUNEAU         CLEAR     54  51  90 W8        29.73S
$$

LSZ147-162-211000-
LAKE SUPERIOR

STATION/POSITION TIME  TEMP    WIND        PRES    WAVE
                       AIR SEA DIR/SP/G            HT/PER
                 (UTC) (F)     (DEG/KT/KT) (MB)    (FT/S)
W MID LAKE BUOY  0750   49 46   30/ 16/ 17 1008.0R   2/ 4
DEVILS ISLAND    0800   51      40/ 18/ 22 1009.1R
PORT WING        0800   52      30/ 23     1009.5R
SAXON HARBOR     0800   54      50/ 20     1007.8R
$$

LMZ867-665-643>646-211000-
LAKE MICHIGAN

STATION/POSITION TIME  TEMP    WIND        PRES    WAVE
                       AIR SEA DIR/SP/G            HT/PER
                 (UTC) (F)     (DEG/KT/KT) (MB)    (FT/S)
N MID LAKE BUOY  0750   57 58   20/ 10/ 14 1003.2S   2/ 3
NORTHPORT PIER   0800   56      40/  9/ 12 1003.4F
SISTER BAY       0812           10/  4/  7   N/A
KEWAUNEE LAKESHO 0800   56     330/  5/  6 1002.6R
SHEBOYGAN LAKESH 0800   59 54  280/ 16/ 19 1004.5R
PORT WASHINGTON  0840   60     290/  6/ 11 1006.1R
ATWATER BUOY     0800   60     260/ 17/ 23 1006.5R
MILWAUKEE LAKESH 0800   61     290/ 14/ 20   N/A
S MID LAKE BUOY  0750   63 63  270/ 17/ 21 1004.5R   2/ 4
KENOSHA   LAKESH 0800   62     290/ 13/ 26 1005.8S
$$

TC  - TEMPERATURE IN CELSIUS
VSB - VISIBILITY IN STATUTE MILES
WCI - WIND CHILL INDEX
HX  - HEAT INDEX




USA.gov is the U.S. government's official web portal to all federal, state and local government web resources and services.